Flag for U.S.A. Weather past 2 weeks in Post Falls, Idaho, U.S.A.

Now
77 °F

Clear.


Feels Like: 78 °F
Forecast: 65 / 96 °F
Wind: 6 mph from South

Location: Coeur d'Alene Weather Reporting System

Current Time: Jul 3, 2015 at 10:43:06 PM

Latest Report: Jul 3, 2015 at 10:15 PM


Visibility: 10 mi

Pressure: 29.78 "Hg (27.60 "Hg at 664m altitude)

Humidity: 34%

Dew point: 46 °F

Location of Post FallsLocation

Historic Weather in Post Falls — Graph

°F

Post Falls temperature yesterday

Maximum temperature yesterday: 95 °F (at 3:35 PM)
Minimum temperature yesterday: 59 °F (at 2:55 AM)
Average temperature yesterday: 79 °F

Past Weeks' High & Low Weather Summary

 TemperatureHumidityPressure
High102 °F (Jun 28, 2:15 PM)82% (Jun 26, 3:55 AM)30.16 "Hg (Jun 26, 3:55 AM)
Low50 °F (Jun 21, 5:55 AM)10% (Jun 24, 12:15 PM)29.74 "Hg (Jul 3, 7:35 PM)
Average74 °F43%29.98 "Hg
* Reported Jun 18 9:15 PM — Jul 3 9:35 PM, Post Falls, Weather by CustomWeather, © 2015

Note: Actual official high and low records may vary slightly from our data, if they occured in-between our weather recording intervals... More about our weather records

Advertising

Post Falls weather history for previous 24 hours

 ConditionsComfort  
Time TempWeatherWind HumidityBarometerVisibility
9:35 PM
Fri, Jul 3
77 °FSunny.5 mph36%29.77 "Hg10 mi
9:15 PM77 °FSunny.5 mph36%29.77 "Hg10 mi
8:35 PM81 °FSunny.5 mph39%29.75 "Hg10 mi
8:15 PM84 °FSunny.3 mph33%29.75 "Hg10 mi
7:55 PM88 °FSunny.No wind29%29.74 "Hg10 mi
7:35 PM88 °FSunny.5 mph31%29.74 "Hg10 mi
7:15 PM93 °FSunny.3 mph21%29.75 "Hg10 mi
6:55 PM95 °FSunny.7 mph19%29.75 "Hg10 mi
6:35 PM95 °FSunny.6 mph20%29.75 "Hg10 mi
6:15 PM97 °FSunny.3 mph17%29.76 "Hg10 mi
5:55 PM97 °FSunny.5 mph17%29.77 "Hg10 mi
5:35 PM97 °FSunny.8 mph17%29.77 "Hg10 mi
5:15 PM97 °FSunny.6 mph16%29.78 "Hg10 mi
4:55 PM99 °FSunny.5 mph15%29.79 "Hg10 mi
4:35 PM99 °FSunny.9 mph15%29.79 "Hg10 mi
4:15 PM99 °FSunny.12 mph16%29.80 "Hg10 mi
3:55 PM99 °FSunny.8 mph16%29.81 "Hg10 mi
3:35 PM99 °FSunny.9 mph16%29.82 "Hg10 mi
2:55 PM99 °FSunny.10 mph17%29.84 "Hg10 mi
2:35 PM97 °FSunny.12 mph17%29.84 "Hg10 mi
2:15 PM97 °FSunny.9 mph18%29.85 "Hg10 mi
1:55 PM97 °FSunny.8 mph18%29.86 "Hg10 mi
1:35 PM97 °FSunny.7 mph19%29.87 "Hg10 mi
1:15 PM97 °FSunny.6 mph22%29.87 "Hg10 mi
12:55 PM93 °FSunny.3 mph23%29.88 "Hg10 mi
12:35 PM93 °FSunny.5 mph24%29.89 "Hg10 mi
12:15 PM91 °FSunny.6 mph28%29.89 "Hg10 mi
11:55 AM90 °FSunny.No wind27%29.90 "Hg9 mi
11:35 AM90 °FSunny.5 mph27%29.91 "Hg10 mi
11:15 AM88 °FSunny.3 mph29%29.91 "Hg10 mi
10:55 AM86 °FSunny.6 mph31%29.91 "Hg10 mi
10:35 AM84 °FSunny.8 mph33%29.91 "Hg10 mi
10:15 AM82 °FSunny.6 mph35%29.92 "Hg10 mi
9:55 AM82 °FSunny.3 mph37%29.93 "Hg10 mi
9:35 AM79 °FSunny.No wind42%29.93 "Hg10 mi
9:15 AM79 °FSunny.3 mph42%29.93 "Hg9 mi
8:55 AM79 °FSunny.No wind42%29.93 "Hg10 mi
8:35 AM77 °FSunny.3 mph44%29.93 "Hg10 mi
8:15 AM75 °FSunny.6 mph47%29.94 "Hg10 mi
7:55 AM75 °FSunny.7 mph47%29.94 "Hg10 mi
7:35 AM73 °FSunny.5 mph47%29.94 "Hg10 mi
7:15 AM72 °FSunny.3 mph50%29.94 "Hg10 mi
6:55 AM70 °FSunny.6 mph53%29.94 "Hg10 mi
6:35 AM68 °FSunny.6 mph56%29.94 "Hg10 mi
6:15 AM64 °FSunny.5 mph64%29.94 "Hg10 mi
5:55 AM61 °FSunny.3 mph63%29.94 "Hg10 mi
5:35 AM61 °FClear.5 mph68%29.93 "Hg10 mi
5:15 AM63 °FClear.5 mph64%29.93 "Hg10 mi
4:55 AM59 °FClear.6 mph68%29.92 "Hg10 mi
4:35 AM61 °FClear.5 mph68%29.92 "Hg10 mi
4:15 AM61 °FClear.5 mph68%29.92 "Hg10 mi
3:55 AM63 °FClear.5 mph64%29.92 "Hg10 mi
3:35 AM63 °FClear.5 mph64%29.92 "Hg10 mi
2:55 AM63 °FClear.6 mph64%29.91 "Hg10 mi
2:35 AM63 °FClear.3 mph68%29.91 "Hg10 mi
2:15 AM63 °FClear.6 mph56%29.91 "Hg10 mi
1:55 AM66 °FClear.5 mph60%29.92 "Hg10 mi
1:35 AM64 °FClear.6 mph64%29.91 "Hg10 mi
1:15 AM64 °FClear.5 mph68%29.91 "Hg10 mi
12:55 AM64 °FClear.6 mph64%29.92 "Hg10 mi
12:35 AM66 °FClear.5 mph64%29.91 "Hg10 mi
12:15 AM68 °FClear.3 mph60%29.91 "Hg10 mi
11:55 PM
Thu, Jul 2
70 °FClear.5 mph60%29.91 "Hg10 mi
11:35 PM72 °FClear.5 mph57%29.91 "Hg10 mi
10:55 PM73 °FClear.7 mph53%29.92 "Hg10 mi
10:35 PM75 °FClear.3 mph50%29.92 "Hg10 mi
10:15 PM77 °FClear.5 mph47%29.91 "Hg10 mi
Weather by CustomWeather, © 2015

See weather overviewHow to use our weather pages